Wind_Speed
13 13 13 13 13 12 12 12 12 12 12 12 12 12 12 12 13 12 13 13 13 13 13 14 14 15 15 16 16 17 18 19 19 16 18 19 14 12 13 13 11 10 9 11 12 13 15 16 16 17 14 10 8 8 11 10 8 7 6 8 8 8 10 10 12 8 6 6 5 7 6 3 8 3 5 4 7 7 2 7 12 13 10 7 11 20 25 22
13 13 13 13 13 13 13 12 12 12 12 11 12 12 12 12 13 12 13 13 14 14 14 14 14 15 15 15 16 16 17 19 20 21 26 25 16 15 15 15 16 12 11 14 16 17 15 14 15 16 11 8 8 9 10 9 9 8 6 8 8 10 12 12 13 8 4 6 6 6 2 5 7 3 3 4 8 9 8 8 12 11 12 12 15 20 21 21
13 14 13 13 13 13 13 13 12 12 12 12 12 12 12 12 12 13 13 13 14 14 14 14 14 15 15 15 15 14 16 19 17 17 21 18 17 20 18 16 16 13 16 18 17 17 16 15 16 14 10 9 8 10 11 9 9 9 8 8 9 13 14 16 15 8 5 8 8 4 2 6 2 2 2 3 6 7 7 7 9 7 10 13 13 16 17 18
14 14 14 14 14 13 13 13 13 13 13 12 12 12 12 12 12 13 13 13 14 14 14 14 15 15 14 15 14 13 15 16 8 2 3 5 12 18 19 17 14 14 19 20 17 16 16 15 15 13 11 9 9 11 11 10 9 8 9 9 11 14 14 17 13 8 6 4 6 4 1 5 2 2 3 2 3 3 2 5 10 9 9 12 13 13 15 15
14 14 14 14 14 14 14 14 13 13 13 13 12 12 12 12 12 12 13 13 13 14 14 14 14 15 15 15 12 12 12 6 1 6 7 7 8 10 14 15 14 14 18 20 18 16 16 16 13 12 10 9 10 10 11 13 10 7 11 13 15 16 14 15 8 7 7 1 4 5 4 6 2 1 5 4 5 2 4 2 6 11 11 12 14 12 13 14
14 14 14 14 13 14 14 14 14 13 13 13 13 13 12 12 12 12 12 13 13 13 14 14 14 15 14 13 11 11 8 3 3 5 9 6 5 6 9 11 12 14 16 17 17 16 15 15 13 11 9 9 12 12 11 14 13 9 11 14 16 18 17 15 10 5 3 3 5 8 10 9 3 3 8 7 8 9 4 5 2 13 14 12 13 12 13 14
14 14 14 14 14 14 14 13 14 14 14 14 14 13 13 12 12 11 11 13 13 13 13 13 14 14 14 14 11 9 8 10 8 6 10 5 5 5 7 9 12 14 15 16 15 14 13 15 14 11 10 10 12 13 13 14 14 12 12 13 16 18 17 15 12 3 2 5 9 10 12 7 5 7 5 6 7 14 13 6 4 12 15 13 12 12 12 12
14 14 14 14 14 14 14 14 14 14 14 14 14 14 13 13 12 12 12 12 12 13 13 13 13 12 12 13 10 7 9 11 5 11 9 7 7 6 8 10 13 15 15 16 15 13 12 14 14 11 11 11 11 13 14 14 14 14 14 14 14 15 16 15 14 7 3 6 8 10 12 5 6 11 6 8 6 19 17 12 11 10 12 13 11 11 10 10
14 14 14 14 15 15 15 14 14 14 14 14 14 14 14 13 13 12 12 12 12 12 12 13 13 9 8 9 8 7 6 2 9 8 7 9 8 8 11 11 14 16 14 16 16 14 11 11 13 12 12 12 12 13 14 13 11 12 15 15 15 16 16 13 11 11 9 6 7 10 12 8 8 12 9 9 5 14 17 15 16 12 11 13 11 8 6 7
14 15 15 15 15 15 15 15 15 15 14 14 14 14 15 14 13 12 12 12 12 12 12 12 10 8 9 9 9 8 3 2 6 6 7 10 10 12 12 12 16 17 14 14 15 15 11 10 11 11 12 12 12 13 13 13 9 10 16 16 17 17 16 14 10 11 11 9 11 11 11 11 11 11 8 7 11 10 12 11 17 18 13 12 11 8 3 3
15 15 15 15 15 15 15 15 15 15 15 15 15 14 15 15 13 12 12 12 12 12 11 10 7 7 10 10 8 7 2 2 3 6 8 12 14 14 14 13 15 16 15 13 14 14 13 13 12 9 8 9 12 13 13 14 13 13 17 14 13 15 16 18 15 11 10 11 13 12 12 13 11 12 9 9 15 10 10 10 15 19 15 13 13 10 4 2
15 15 15 15 16 16 16 16 15 15 15 15 15 15 15 15 14 13 12 12 11 10 9 8 5 6 11 9 11 16 12 9 6 4 8 12 14 14 13 14 15 15 15 13 12 13 13 14 12 10 8 7 9 10 9 13 14 14 16 12 11 14 15 19 17 11 11 11 12 13 12 13 12 13 13 13 15 9 11 12 12 17 15 13 13 11 8 9
15 15 15 15 16 16 16 16 16 16 16 16 15 15 15 16 16 15 13 12 10 9 8 8 5 8 10 7 14 25 22 16 10 7 8 11 13 13 12 14 15 13 14 14 12 11 11 13 12 12 12 9 8 7 7 8 11 13 13 11 11 12 12 16 16 14 14 11 11 11 8 10 12 15 16 14 17 12 13 12 11 13 13 11 9 10 10 12
16 15 15 16 16 16 16 16 16 17 16 16 16 16 16 17 19 16 14 12 10 6 5 5 5 7 8 9 19 25 19 14 12 10 11 12 13 13 13 13 12 12 13 14 13 10 9 13 12 11 11 11 10 11 9 7 9 11 11 9 9 9 9 14 16 16 15 11 13 12 7 9 11 17 17 14 17 12 12 12 10 10 10 13 9 10 10 10
16 16 16 16 16 16 16 16 17 17 17 18 17 17 17 17 18 16 13 12 10 6 4 5 6 7 7 12 19 19 14 15 15 14 13 14 14 14 14 13 12 13 12 12 12 10 9 10 10 8 9 11 12 12 9 7 8 8 9 9 8 9 10 13 15 18 17 13 15 14 8 9 12 15 17 17 16 12 11 12 11 11 8 15 11 10 10 9
16 16 16 16 16 17 17 17 17 17 19 19 18 17 16 16 16 15 12 9 7 4 3 6 10 10 7 7 7 6 12 16 17 16 15 16 16 13 13 13 12 13 12 11 11 10 10 9 8 8 10 11 11 10 8 7 8 8 8 9 9 11 10 11 15 18 20 15 17 17 10 8 10 15 16 19 18 16 15 13 12 12 8 14 9 5 8 8
16 17 17 17 17 17 17 17 18 19 20 20 19 17 15 15 14 11 7 4 4 4 7 9 9 8 8 10 8 6 13 16 16 16 17 17 16 15 13 11 10 11 12 11 11 10 10 9 7 8 9 9 9 8 8 8 7 7 8 8 11 14 11 10 13 16 21 17 16 18 13 10 11 15 16 19 22 18 16 15 13 13 9 11 11 6 8 8
17 17 17 17 17 17 17 18 19 19 20 20 18 16 16 15 11 8 5 2 2 6 11 11 8 6 7 10 12 12 12 14 13 13 17 17 17 17 13 9 9 10 10 9 10 10 8 8 7 7 8 9 9 9 9 10 9 9 9 8 10 13 14 13 13 13 20 19 16 16 15 14 16 16 16 15 22 19 15 15 13 13 12 11 12 10 10 10
18 18 18 18 18 18 18 18 19 19 21 21 17 15 14 10 6 7 8 6 5 5 6 6 8 6 6 7 12 13 6 6 9 10 15 17 16 16 12 9 9 10 10 7 9 11 8 6 8 8 8 9 11 11 11 12 15 14 10 10 10 10 12 14 15 14 18 19 15 14 14 15 17 18 13 4 12 14 14 13 11 13 13 11 12 10 10 11
19 19 19 19 18 19 18 18 19 19 20 21 19 13 9 6 3 4 8 10 10 10 11 8 12 12 13 11 10 11 5 6 7 10 14 16 14 14 11 10 10 10 10 9 9 10 8 7 8 9 10 12 14 14 15 16 18 17 12 12 13 11 11 14 16 13 16 15 13 14 15 15 15 17 13 7 11 9 11 10 10 11 10 11 12 11 12 12
20 20 20 20 20 20 19 19 19 19 19 19 16 10 6 7 6 4 3 8 13 17 18 17 15 16 17 16 15 10 7 9 10 11 13 15 14 12 9 10 11 9 10 12 9 8 9 9 10 12 14 15 15 14 14 16 17 16 13 13 12 11 11 13 15 13 13 11 10 14 14 14 14 14 14 12 15 13 12 10 12 11 10 11 11 12 13 10
21 20 20 20 20 20 20 20 19 19 19 15 11 9 10 11 10 10 10 10 12 17 19 21 20 19 18 20 20 14 7 10 12 12 14 16 13 11 10 11 12 9 11 13 9 7 9 10 12 15 14 14 15 14 14 16 15 12 10 11 10 8 9 12 14 14 12 7 7 13 12 12 13 14 15 14 13 14 13 13 12 11 11 11 12 12 10 6
21 20 21 20 20 21 20 20 20 21 19 14 11 11 14 15 14 13 11 8 13 16 16 18 19 19 18 19 18 16 12 11 11 12 16 16 13 13 11 11 12 11 11 12 11 8 7 10 15 16 14 14 15 11 10 12 10 9 8 8 9 8 9 8 6 7 7 5 6 9 8 9 11 13 14 13 12 12 14 14 12 12 10 10 13 11 12 11
20 20 20 20 22 21 19 22 23 20 16 14 16 17 16 15 14 13 10 7 11 14 16 19 16 16 17 16 16 16 14 11 11 12 18 17 12 12 12 11 12 12 11 14 15 12 11 12 14 15 16 17 13 7 6 6 6 8 11 10 9 10 12 8 5 6 6 6 5 7 7 7 10 14 12 10 13 12 14 14 13 13 11 11 12 8 10 8
20 20 19 20 21 21 21 21 18 13 10 12 18 20 15 11 9 9 8 6 7 11 15 16 12 13 16 16 15 14 12 12 13 13 17 18 14 11 10 9 9 11 13 16 16 12 13 11 9 14 16 13 10 7 9 8 6 8 12 14 15 15 16 12 8 8 4 5 8 6 8 7 9 13 10 9 13 11 11 12 14 13 12 13 11 7 7 2
20 19 19 19 20 22 19 11 10 13 13 11 11 9 6 5 7 8 6 5 6 8 8 7 7 8 10 13 12 11 11 11 13 15 16 20 17 12 9 8 7 10 13 14 11 7 10 10 8 10 9 9 9 9 11 11 8 8 10 15 18 19 19 17 9 7 5 5 6 9 9 6 7 11 12 11 12 11 12 13 14 12 12 14 8 9 6 7
20 19 19 19 18 19 12 8 13 16 13 6 5 7 6 6 8 7 5 4 5 6 7 6 5 6 6 9 11 10 9 7 11 16 15 19 17 13 11 10 7 10 11 8 7 5 9 12 10 8 7 7 9 9 11 13 9 8 10 13 17 19 18 18 12 6 6 6 6 10 10 7 6 10 14 16 14 13 14 14 12 11 12 9 7 11 6 10
20 19 19 19 18 14 10 13 16 14 12 10 10 9 8 9 9 6 4 4 3 1 5 4 3 4 5 8 13 12 9 7 10 14 16 20 17 12 12 13 10 11 12 9 7 7 9 12 10 10 10 8 8 10 12 13 11 10 14 13 13 16 17 15 10 6 6 6 6 8 10 8 7 8 11 13 14 15 14 12 12 12 9 5 10 7 7 10
21 20 19 20 20 13 10 14 13 12 15 15 11 10 10 10 8 4 4 4 3 3 2 3 4 6 8 9 13 15 13 9 8 10 16 18 16 13 10 13 14 13 14 12 8 6 8 10 10 10 9 8 10 12 13 14 11 11 14 15 13 13 14 12 8 6 6 6 7 9 9 7 6 7 6 5 10 12 11 11 11 10 4 8 9 4 5 8
23 22 21 20 17 11 7 14 16 13 12 12 11 11 10 8 5 4 5 3 2 3 4 4 5 8 11 11 12 14 15 12 7 10 14 14 15 15 10 11 13 12 11 11 11 10 8 8 9 9 8 10 12 12 14 15 13 12 12 12 11 9 9 9 7 7 6 6 8 11 11 8 6 7 6 6 9 9 8 10 10 8 6 8 7 5 5 9
25 25 22 17 13 10 8 9 10 8 6 7 10 9 7 5 4 6 6 3 5 7 6 7 9 10 12 13 11 12 16 14 8 12 12 11 13 13 10 9 9 8 9 8 10 13 11 6 6 7 8 11 12 11 12 13 12 10 9 7 7 6 7 7 7 6 6 6 9 12 14 11 7 6 4 3 6 8 8 8 10 11 9 9 7 6 9 8
26 25 21 17 15 13 12 9 7 8 6 8 9 7 5 5 6 6 6 4 5 6 7 7 10 11 13 14 12 12 14 12 10 12 12 11 10 11 11 9 7 7 8 7 8 11 11 9 8 8 10 13 12 9 7 7 8 8 7 7 7 5 6 6 5 6 6 7 9 11 11 9 6 3 1 3 2 5 9 7 9 10 10 11 10 9 9 6
26 23 20 17 15 16 17 13 11 10 8 8 7 5 5 6 7 7 8 7 4 3 1 3 6 8 10 12 11 11 13 12 11 12 13 13 11 11 15 14 11 10 7 7 8 8 8 9 11 11 9 12 12 8 6 6 8 9 8 7 7 5 5 6 6 6 7 8 10 8 4 5 4 2 5 8 9 4 1 4 6 6 9 11 10 9 7 8
24 21 18 12 11 14 12 10 9 7 6 6 5 5 7 8 7 8 10 10 10 9 5 4 5 7 9 10 10 11 11 12 13 14 13 13 11 10 13 16 16 12 7 7 7 7 9 8 10 11 8 11 13 11 9 7 8 10 9 8 7 5 4 5 5 5 4 5 7 7 4 3 4 4 7 10 11 9 7 7 8 6 6 7 8 7 7 11
21 16 12 7 11 13 10 9 8 6 5 6 5 6 9 8 6 9 9 10 11 13 13 11 8 8 9 10 11 11 9 9 13 14 12 12 11 10 11 13 17 15 8 6 5 6 10 8 9 14 11 12 15 14 12 9 6 7 9 9 7 5 4 3 2 1 1 3 4 5 3 2 4 4 6 8 9 8 8 9 11 12 11 9 8 8 10 12
17 8 5 8 12 12 10 9 7 5 6 5 6 8 8 7 7 8 7 9 11 11 13 13 11 10 8 7 10 11 11 10 11 10 9 12 13 12 13 11 14 16 11 7 4 4 8 7 6 13 14 14 14 13 12 11 5 2 6 8 7 7 5 3 3 3 2 2 3 2 1 4 6 3 4 7 8 9 9 10 12 11 11 12 11 10 11 12
14 7 7 10 9 9 7 8 7 7 6 5 7 8 7 9 11 11 10 12 13 13 12 10 8 9 9 8 9 11 12 11 10 7 6 10 11 11 14 13 14 18 15 10 7 4 5 5 4 7 12 14 13 12 14 13 7 4 4 4 5 7 6 3 3 3 3 5 5 5 5 5 5 4 6 10 9 11 12 12 12 9 9 11 11 11 12 13
12 9 9 8 3 5 3 7 9 8 5 6 9 10 9 10 12 13 13 14 16 15 11 7 7 9 10 9 8 10 11 9 9 8 4 6 6 3 6 9 12 17 18 14 8 4 4 5 4 8 11 11 12 11 11 12 13 10 4 0 2 4 4 4 2 4 5 5 5 7 9 5 0 1 7 11 10 11 11 11 10 8 8 10 11 12 13 12
10 8 5 2 2 0 4 6 9 7 5 7 9 8 9 12 14 16 16 15 15 13 10 8 9 10 10 10 9 10 10 5 4 4 4 5 4 5 7 6 7 12 18 16 8 4 4 4 4 7 10 7 9 8 7 8 11 11 6 3 4 3 3 3 2 4 5 4 5 8 8 3 6 5 5 12 12 10 9 9 9 7 7 9 9 10 10 10
7 5 1 1 1 0 1 6 8 6 6 8 8 8 9 11 14 16 17 16 14 10 9 9 9 10 11 12 12 8 6 4 1 1 4 3 1 3 6 7 8 11 12 15 12 6 5 4 3 5 8 6 5 7 8 8 7 7 7 6 6 3 4 4 3 4 5 3 3 5 3 3 4 5 7 14 13 10 8 8 9 6 6 8 6 7 7 5
6 5 1 2 1 3 4 5 6 5 7 8 9 10 11 11 11 14 16 17 14 9 8 9 11 11 10 11 12 8 5 6 6 3 1 0 3 1 4 7 7 10 12 12 11 5 4 5 4 4 5 6 7 6 7 10 10 8 7 7 7 6 5 4 4 4 5 4 2 1 1 2 2 3 5 9 10 11 9 10 11 9 9 7 4 8 8 3
6 3 2 4 2 5 4 4 4 5 6 7 9 11 11 10 11 14 14 12 10 9 7 9 13 12 10 11 11 8 8 7 6 4 3 2 3 4 4 9 9 9 11 7 3 2 2 2 4 6 5 7 10 8 8 11 13 13 9 6 7 7 5 5 4 3 3 4 3 2 3 2 2 3 5 7 8 8 6 8 12 11 12 13 9 11 12 8
3 1 3 4 2 5 6 5 5 5 5 7 10 13 14 10 9 11 11 8 8 7 7 9 12 12 11 9 8 8 10 7 3 5 4 4 4 6 4 6 7 8 8 5 4 4 2 1 4 5 3 6 10 9 13 14 10 9 8 6 6 5 6 6 4 3 3 2 4 3 3 2 3 4 6 9 9 7 2 4 9 9 9 13 13 11 10 10
4 2 3 3 0 5 4 3 4 5 6 8 10 12 14 12 10 9 9 8 7 7 8 8 10 13 12 9 8 10 10 6 3 4 3 1 1 2 2 3 2 5 5 2 3 3 1 2 4 4 2 4 6 5 8 11 9 6 7 8 9 8 6 3 3 4 4 4 6 4 1 2 4 5 8 11 10 8 4 2 4 8 7 9 12 10 9 9
6 3 2 2 2 4 2 2 5 6 6 8 8 9 10 9 10 10 9 8 7 7 8 8 10 13 11 9 12 14 10 7 7 3 5 3 3 4 4 1 3 6 5 1 3 2 1 1 2 5 5 4 4 2 1 4 6 7 11 12 12 13 8 2 1 3 4 5 6 3 2 4 5 8 9 9 9 8 4 2 3 7 6 7 10 10 10 10
4 2 2 2 2 4 3 3 6 7 5 5 6 7 8 5 7 9 8 7 6 7 8 7 10 11 9 10 12 12 10 9 9 7 4 6 4 5 7 6 4 7 2 2 2 3 2 1 2 3 4 1 2 2 3 5 7 9 14 17 14 11 9 5 3 2 2 1 3 2 5 9 8 9 10 8 7 7 5 3 5 7 7 9 10 10 11 10
3 2 4 4 2 4 3 4 7 6 4 4 4 6 9 7 5 3 6 5 4 6 7 7 8 8 7 8 9 9 10 11 12 11 5 4 5 5 8 10 12 11 7 4 6 3 2 4 5 3 2 4 5 4 4 5 8 11 13 16 18 16 10 7 6 4 4 2 0 2 8 12 10 8 10 9 6 5 5 5 7 9 10 12 11 11 13 12
3 3 4 3 3 4 5 6 8 6 7 6 3 5 10 11 7 2 4 5 3 3 5 5 8 10 10 9 9 7 8 10 11 6 3 3 1 3 3 7 9 12 11 8 7 4 3 5 6 6 6 6 5 4 6 4 2 7 9 11 15 18 16 11 9 8 7 4 5 7 10 13 11 9 10 9 8 7 7 8 8 9 11 12 12 13 15 15
4 2 3 1 1 4 4 7 9 7 9 9 5 7 10 9 7 4 4 3 4 6 5 4 8 11 9 7 6 3 4 5 6 6 8 6 3 2 2 3 2 4 8 8 4 3 4 3 5 6 7 7 6 5 5 6 6 3 3 7 10 11 11 10 12 13 6 6 12 14 15 13 9 9 10 9 8 8 8 9 8 7 9 12 13 14 15 16
4 2 3 2 1 3 3 5 8 7 8 8 6 8 10 8 9 9 7 6 5 6 6 6 8 10 7 9 8 7 8 7 5 6 7 5 2 1 2 3 3 6 6 4 1 3 3 2 4 5 5 5 6 5 5 6 7 8 7 5 6 8 8 8 8 10 7 8 12 15 15 10 6 7 8 7 6 8 10 11 9 7 6 9 13 14 14 16
7 4 4 5 3 4 3 5 6 5 6 7 6 7 9 10 12 10 7 8 8 8 9 9 9 8 7 9 10 10 9 8 7 6 7 6 3 3 2 4 6 5 1 2 4 6 3 1 2 4 5 4 5 6 5 4 6 8 9 9 8 4 5 7 7 6 3 6 9 9 9 6 5 6 7 6 7 10 12 12 11 11 11 10 12 13 13 14
9 6 6 6 3 4 4 5 6 5 5 4 5 7 8 9 11 9 5 7 9 10 11 12 10 6 4 8 11 11 10 10 9 7 7 7 7 5 3 3 6 4 3 4 3 4 3 1 2 4 4 3 4 6 6 4 4 5 4 6 8 6 2 3 7 8 3 4 4 3 5 8 8 8 8 9 11 13 13 12 11 13 14 14 15 15 15 15
Wind_Direction
355 354 352 352 349 347 343 337 330 324 318 312 310 311 308 306 306 305 306 306 307 308 309 312 311 310 311 312 310 309 313 306 298 281 250 250 250 242 250 245 250 261 232 216 221 210 200 210 219 219 223 228 227 234 235 227 224 232 227 240 249 248 252 248 254 267 280 273 90 52 9 315 274 208 158 225 240 252 206 101 86 75 73 93 106 124 133 135
353 352 351 351 349 347 344 340 334 329 324 318 312 312 309 306 306 306 306 306 306 307 308 309 311 312 313 313 311 312 312 300 287 275 258 253 249 243 249 244 246 249 213 206 217 210 200 205 212 214 217 226 221 222 232 222 215 230 231 233 240 246 252 249 257 279 337 355 35 57 4 257 279 321 112 205 230 221 202 123 96 95 89 87 103 121 132 138
352 351 349 348 347 345 343 341 338 335 332 325 318 313 310 308 306 305 305 307 307 308 309 310 313 313 314 313 314 319 312 297 283 267 262 254 235 234 241 242 243 233 204 202 212 209 208 209 208 212 214 225 223 216 222 218 213 222 234 239 238 243 255 261 270 297 7 13 356 26 206 230 281 335 167 240 249 222 203 137 119 125 118 115 117 128 136 144
350 349 347 346 345 343 342 341 340 339 336 331 324 316 312 309 306 305 306 306 308 309 310 312 314 313 316 314 315 324 310 292 283 252 244 201 202 224 235 239 237 218 203 207 220 218 216 217 210 212 217 225 227 221 222 221 216 210 226 240 245 246 249 256 272 300 293 305 307 347 121 245 269 242 229 237 252 324 337 131 139 149 149 141 136 140 142 154
349 348 347 345 343 342 341 340 340 339 338 335 329 322 315 312 308 307 305 306 308 308 311 313 314 315 314 312 320 320 301 284 80 102 116 139 174 209 222 227 223 207 203 213 232 233 223 224 218 214 221 232 230 225 223 223 224 220 228 237 248 255 255 260 292 319 293 307 264 274 278 275 295 259 265 213 161 241 278 60 131 158 159 152 148 149 151 166
348 347 345 343 342 340 340 340 339 338 337 336 332 327 319 314 309 306 305 306 307 307 311 312 313 315 314 317 318 300 278 290 12 124 134 138 156 186 200 208 207 198 203 217 235 240 225 224 223 218 220 232 237 235 227 220 222 232 239 238 244 254 261 276 301 325 334 345 269 260 268 286 329 266 255 226 165 167 163 29 202 166 150 151 149 152 162 172
347 346 344 342 342 339 340 339 338 337 336 335 334 330 322 316 309 303 302 303 304 306 307 310 314 316 324 329 307 263 242 276 291 145 139 144 147 166 180 186 191 191 204 217 230 236 224 221 224 224 223 229 240 242 239 230 223 231 242 242 246 251 255 267 279 309 55 267 264 263 262 272 288 262 245 248 193 131 111 95 146 134 133 146 146 155 166 171
347 346 343 342 341 339 340 338 338 336 334 334 332 330 325 318 311 306 303 301 300 303 307 309 314 322 335 334 308 258 249 259 203 144 150 154 150 158 162 173 186 191 207 221 230 235 225 224 227 229 229 230 239 243 246 242 229 230 241 245 250 254 252 252 254 253 217 235 252 260 264 259 255 263 256 257 196 129 141 158 133 119 137 143 144 156 163 171
346 344 343 342 340 340 339 337 337 334 333 332 329 329 325 318 311 307 304 302 300 301 307 307 311 328 333 317 295 282 278 205 132 148 171 161 163 166 164 175 187 193 209 224 235 236 224 225 230 234 240 241 242 243 245 246 234 228 240 244 247 254 258 256 244 239 237 235 240 239 250 252 245 262 261 260 227 147 161 160 146 158 156 142 141 146 163 183
344 344 342 342 340 338 337 336 335 333 332 329 327 326 323 318 309 305 302 299 301 299 301 303 310 328 313 288 275 276 294 112 140 167 173 166 166 166 179 188 186 196 213 225 233 233 227 229 230 234 245 254 255 251 247 249 251 242 243 242 241 250 259 265 251 237 246 243 240 237 239 242 235 246 244 243 249 195 161 168 164 155 150 151 141 134 144 216
342 342 341 340 339 337 336 334 333 331 329 326 325 322 320 318 308 303 301 296 297 295 298 302 313 320 297 282 271 264 284 314 190 167 171 172 167 172 195 199 188 201 218 227 231 230 233 237 240 242 238 245 255 260 259 257 261 254 253 250 243 251 254 254 244 226 240 238 231 236 242 239 228 235 229 227 246 203 160 201 172 142 150 162 145 141 138 235
341 341 340 339 337 335 334 332 331 329 326 324 321 319 318 317 311 303 297 296 297 295 298 301 316 310 288 279 255 248 255 274 268 220 190 180 181 186 200 205 196 207 223 232 233 229 239 247 254 260 248 240 248 257 267 264 262 256 259 263 251 253 251 248 243 220 227 233 220 222 238 240 225 230 226 227 242 190 169 217 182 153 157 159 154 149 158 195
342 340 339 338 335 334 332 330 329 326 324 322 319 317 316 315 314 305 294 293 291 292 294 290 297 287 279 276 252 251 255 258 254 238 204 194 203 203 209 215 208 217 231 241 246 234 239 252 258 262 260 263 261 259 275 272 262 253 252 258 254 254 249 244 240 225 226 231 220 213 225 237 226 231 226 225 237 201 181 214 197 179 159 143 157 151 168 188
341 340 338 336 334 332 330 328 326 325 322 319 317 317 315 315 313 304 292 285 284 292 297 288 280 271 263 258 265 266 266 259 244 228 218 210 210 210 214 220 220 228 235 244 257 254 243 246 252 262 265 265 269 266 268 266 254 247 241 240 246 252 252 243 232 220 222 225 219 214 223 234 225 227 219 222 236 203 185 205 198 206 164 133 159 163 170 183
341 339 337 335 333 331 329 327 325 323 321 319 319 320 317 314 312 301 288 280 279 282 297 296 252 249 268 262 271 276 260 250 242 228 221 213 213 215 210 215 227 232 235 242 252 262 258 245 241 251 256 252 259 267 266 260 246 238 236 237 236 240 250 249 234 217 216 219 214 212 228 235 233 231 209 211 228 191 188 210 193 216 170 133 157 168 164 175
339 337 336 334 332 330 328 325 324 322 320 321 323 322 318 317 313 302 291 281 279 266 258 266 228 220 268 282 288 266 226 228 233 227 222 216 216 218 207 209 226 228 233 239 238 247 249 244 238 238 246 242 241 250 254 253 239 221 227 239 239 238 240 245 242 221 208 212 211 210 227 230 234 245 216 204 214 191 192 215 201 211 184 135 142 160 165 172
337 336 334 332 330 329 327 325 324 322 321 324 327 324 318 317 310 302 304 296 281 237 223 254 251 225 250 283 302 263 222 220 225 221 216 213 216 222 211 203 218 222 224 228 228 234 231 230 234 232 240 240 232 233 237 240 235 222 221 233 242 244 242 237 246 224 199 205 213 206 217 237 234 242 238 213 205 193 190 212 211 206 194 136 129 171 179 165
336 334 332 330 329 328 327 326 324 322 321 324 327 324 316 312 303 287 288 267 224 228 232 251 274 261 239 255 264 258 238 214 210 212 206 204 213 223 214 198 214 215 215 221 219 222 220 216 224 228 225 228 233 227 224 232 235 227 217 224 234 243 248 237 245 228 190 195 217 206 203 231 242 245 263 235 194 181 184 207 214 202 194 138 134 188 178 150
334 333 331 329 327 327 326 326 324 323 322 323 329 326 312 303 286 251 236 213 191 219 244 213 198 235 288 266 243 251 263 172 183 209 201 194 207 222 214 203 216 213 213 216 202 206 210 207 217 228 223 218 226 228 228 233 236 238 234 236 229 232 246 238 248 237 186 186 211 214 206 215 237 245 262 256 159 174 192 196 214 208 188 152 154 189 166 144
334 332 330 327 325 325 325 324 323 322 321 324 331 325 296 278 271 229 213 212 215 235 270 249 201 231 277 282 249 229 194 150 191 218 201 189 201 219 211 204 216 212 217 219 198 199 205 212 217 220 226 223 222 229 239 241 242 254 273 270 241 229 244 234 243 235 185 185 203 212 221 211 225 242 233 176 145 199 220 194 222 222 185 180 185 180 168 161
332 329 328 325 323 322 323 323 321 318 318 320 321 305 275 296 323 339 294 250 234 232 250 258 241 245 257 263 265 244 192 180 207 222 207 191 198 215 200 200 215 207 216 224 208 196 205 220 226 222 228 232 228 223 236 252 256 264 281 286 255 225 240 238 239 230 186 185 202 203 223 220 217 234 233 202 169 192 225 212 227 226 193 200 201 182 178 169
329 328 325 322 321 320 321 321 316 313 313 306 288 265 265 287 314 333 317 290 269 253 249 252 250 253 252 253 263 266 237 200 206 217 201 185 197 211 187 191 216 209 210 222 209 195 211 225 231 230 230 237 241 226 222 242 255 263 266 278 276 239 236 240 238 231 190 174 216 201 211 229 223 224 232 228 191 180 205 213 220 222 205 205 208 191 169 161
327 326 324 323 321 320 321 319 313 309 299 276 248 248 261 276 302 319 307 288 286 277 261 250 243 243 243 243 244 242 240 225 220 213 188 182 203 213 197 193 215 218 207 215 213 199 212 224 227 234 234 231 240 240 230 233 238 256 257 253 271 264 244 239 227 218 165 140 249 230 218 232 233 229 223 231 224 185 185 206 218 222 211 210 219 188 153 177
326 326 324 324 321 319 323 318 310 300 279 248 241 252 261 278 301 313 306 283 281 277 260 249 242 238 234 231 225 220 227 229 236 218 179 181 208 212 213 205 210 224 213 211 216 214 225 227 217 223 231 226 224 234 247 247 231 239 250 246 256 263 256 242 164 165 148 144 214 255 257 238 230 232 213 218 236 198 176 198 215 222 211 213 224 170 135 183
326 326 323 325 322 321 324 316 306 296 268 238 246 257 257 268 301 322 314 281 269 269 253 238 231 233 225 217 213 210 217 217 235 230 176 182 213 208 213 216 211 225 218 212 216 220 232 234 222 223 224 217 210 214 221 233 247 238 234 240 254 263 264 257 190 173 201 191 182 208 248 241 228 235 220 218 230 197 177 203 216 218 208 212 215 139 95 205
326 324 323 324 322 326 328 315 313 318 299 263 259 279 282 284 322 332 303 268 274 268 237 199 190 205 207 204 197 196 219 217 226 231 181 179 214 218 215 218 211 227 224 216 217 226 237 236 236 229 207 189 209 226 220 219 237 249 228 224 242 256 264 272 248 180 203 231 194 197 231 247 226 231 229 227 224 195 191 214 218 215 210 215 199 109 97 218
324 322 323 321 321 332 330 304 319 316 297 303 344 340 332 329 334 323 282 262 275 244 190 160 162 177 185 191 178 181 220 206 204 227 195 177 205 225 226 219 205 226 235 228 215 209 234 233 224 218 201 195 218 227 219 216 221 246 242 218 223 240 253 266 263 219 210 230 217 205 219 243 233 224 220 217 220 210 202 206 209 216 219 207 122 106 172 218
322 321 322 317 315 317 290 287 308 294 281 324 347 321 319 334 324 300 263 261 301 250 170 153 119 161 194 181 177 198 230 200 186 215 197 178 195 215 226 231 226 222 225 239 232 192 213 225 207 208 221 219 228 232 219 216 221 239 249 243 228 227 238 252 256 242 231 227 228 216 213 234 244 234 215 207 220 217 202 199 205 216 214 134 100 123 212 215
324 322 318 316 316 310 268 260 274 278 286 307 320 313 316 319 303 270 246 256 305 332 200 162 134 180 201 182 187 211 231 226 197 193 183 179 197 216 226 236 242 236 221 228 246 221 209 216 205 205 223 228 227 232 225 216 224 237 245 261 259 225 221 239 244 236 234 227 233 224 214 226 247 237 207 204 235 219 196 204 209 206 162 94 95 85 289 243
325 321 319 318 316 317 280 244 253 279 290 294 310 316 306 291 269 235 232 230 255 246 175 152 180 195 197 195 200 210 221 233 209 175 176 177 197 218 232 232 239 252 232 215 234 247 229 210 217 215 214 229 230 229 228 219 219 231 235 253 265 235 216 229 230 231 237 234 239 232 218 217 246 246 207 202 224 202 199 212 191 168 118 91 90 92 256 241
324 320 321 312 292 299 300 252 262 297 288 298 318 309 283 256 233 230 228 232 280 253 188 168 196 196 197 205 207 205 214 226 201 174 181 183 192 207 225 226 224 245 244 217 220 239 237 207 219 239 225 229 236 236 234 217 209 225 227 233 254 237 220 224 216 224 237 235 239 237 224 213 230 252 223 209 215 192 210 208 160 160 152 129 131 155 202 211
321 318 315 298 275 266 259 259 316 331 309 319 317 282 240 225 226 234 237 245 276 247 200 200 212 199 199 210 212 205 211 219 201 187 190 190 192 200 211 218 203 211 233 225 208 221 235 222 206 223 233 233 237 237 226 206 211 229 221 219 238 227 215 224 216 219 233 237 232 231 232 223 225 263 14 41 7 205 209 185 148 174 177 151 161 177 184 167
319 316 306 291 273 255 247 263 298 307 303 307 293 255 225 229 227 226 235 241 274 318 143 221 241 219 206 213 217 208 211 216 201 196 199 196 199 202 209 218 209 206 222 221 212 208 218 230 218 212 218 226 236 238 209 192 212 228 225 219 222 214 214 222 220 222 226 233 229 214 224 230 199 97 73 80 62 42 209 146 135 170 172 157 165 173 152 110
317 310 297 280 260 255 254 264 275 284 295 280 256 229 225 235 235 231 234 235 255 279 269 251 266 246 228 228 228 212 212 219 205 201 203 200 206 204 204 217 216 216 231 223 222 220 214 223 219 213 206 201 217 236 236 214 202 212 227 235 227 217 226 224 224 240 238 246 237 202 193 222 183 100 73 90 84 56 40 63 73 76 116 144 157 148 104 83
316 302 285 255 235 240 241 243 251 269 275 249 228 224 223 228 233 235 242 242 249 263 262 256 254 247 242 235 231 223 224 230 210 206 211 205 211 214 202 211 216 215 223 219 218 227 231 231 204 204 208 196 202 226 247 248 223 206 217 230 231 218 223 229 217 236 308 305 278 216 194 87 120 111 90 105 109 96 79 75 67 56 59 68 85 101 89 84
316 292 238 226 224 215 213 224 228 238 250 237 224 227 225 231 238 238 248 252 251 260 264 259 243 236 243 238 232 225 221 228 214 205 220 217 214 218 211 205 210 214 215 212 213 217 231 246 211 198 205 204 202 213 232 242 238 223 226 227 226 213 202 217 217 173 148 266 257 200 125 104 133 150 142 151 141 112 92 78 69 61 63 65 66 77 79 84
315 289 239 239 219 182 195 219 210 218 242 238 230 235 235 237 242 249 262 269 269 267 262 260 252 243 239 235 238 224 206 211 216 211 230 230 222 225 225 214 203 212 219 219 222 215 231 262 261 224 218 207 203 210 222 228 223 221 235 246 251 225 193 177 231 219 204 237 227 180 183 184 178 193 176 164 137 96 81 74 73 70 75 78 74 76 80 88
304 291 269 259 182 141 234 237 215 218 232 235 238 246 252 250 250 253 260 269 277 277 271 269 271 260 244 235 242 234 218 207 205 208 233 244 242 296 275 240 213 210 214 221 230 201 214 254 246 250 246 208 194 215 224 221 223 229 231 72 256 233 205 186 211 231 219 234 242 203 197 197 4 256 176 154 119 96 95 94 94 88 83 86 88 93 98 101
278 279 272 256 141 178 274 230 210 220 227 232 238 239 246 255 261 265 270 273 271 268 266 264 268 266 255 250 248 235 233 232 187 204 250 246 249 345 338 286 253 230 213 211 222 181 184 255 236 240 257 217 186 215 231 217 220 233 244 226 210 210 225 229 233 240 227 226 239 222 201 131 21 355 124 126 115 111 120 114 103 90 76 80 91 103 107 106
267 268 226 125 189 139 199 200 203 220 225 231 243 245 248 252 255 260 266 271 272 269 264 263 266 266 262 264 262 244 238 253 150 209 254 244 274 324 304 309 326 302 257 218 211 188 167 212 232 238 261 258 220 213 221 228 225 225 231 234 233 211 191 208 236 251 246 241 254 250 216 85 17 356 88 112 123 127 129 116 104 96 77 71 78 95 91 100
282 278 156 115 164 139 155 197 208 227 235 238 245 247 254 261 264 264 258 256 261 266 269 271 269 269 277 279 268 255 258 245 212 195 204 353 359 336 272 305 333 321 292 239 210 197 168 188 210 229 239 248 252 239 223 235 241 236 223 218 229 224 199 208 234 248 254 250 259 302 140 96 35 14 81 109 122 123 129 123 119 134 133 123 133 124 123 169
278 288 92 111 180 195 209 240 240 241 244 251 262 262 260 261 266 269 264 263 274 281 273 264 261 265 281 290 278 268 278 266 227 208 158 149 266 253 263 303 315 313 298 265 206 69 76 179 221 228 230 242 259 292 305 272 250 243 239 231 233 227 214 221 223 219 258 267 248 172 152 127 59 59 96 104 92 92 122 128 122 135 139 133 135 130 137 156
269 329 107 120 179 224 243 273 268 264 268 276 285 285 280 277 277 276 273 276 289 291 281 271 265 261 257 267 285 279 274 281 246 216 197 158 211 239 279 314 311 308 306 308 353 26 77 201 229 223 261 271 266 297 317 307 285 253 249 258 264 252 230 234 240 220 207 241 249 207 159 129 85 76 93 96 81 69 74 120 119 122 121 116 112 110 118 122
316 325 144 123 314 255 263 306 295 288 295 292 294 295 294 292 287 285 286 285 278 267 267 271 271 267 253 244 262 265 263 282 270 202 162 78 233 232 297 336 325 305 310 339 9 11 356 249 236 225 235 252 251 275 307 320 339 331 294 273 258 251 245 253 286 269 249 247 252 245 161 92 98 95 89 88 83 73 37 344 105 103 90 97 105 107 109 111
309 286 191 99 9 294 310 0 302 291 299 302 296 290 293 296 286 280 280 281 281 274 269 272 282 284 276 260 255 253 250 266 272 219 136 152 215 217 218 64 15 307 299 79 113 130 214 289 244 249 249 230 231 232 279 330 348 340 327 313 278 255 255 307 355 248 264 272 274 288 103 124 123 117 106 93 94 97 82 345 84 94 88 93 100 101 99 98
308 320 337 19 30 329 344 14 329 317 316 316 303 283 279 287 292 292 289 274 263 274 277 279 290 295 294 285 272 260 253 251 259 261 190 148 153 221 213 164 176 243 239 104 176 168 148 197 197 251 268 216 155 131 69 16 355 349 351 350 332 292 267 272 266 216 162 75 340 344 137 142 138 129 119 111 113 117 124 145 120 110 105 95 92 93 89 87
308 16 359 351 354 338 349 10 354 347 342 333 317 307 307 304 291 305 326 310 261 268 278 273 280 286 287 288 281 273 272 260 249 251 236 140 135 198 214 198 196 192 160 181 233 207 150 205 188 189 205 153 147 134 89 32 354 352 357 0 358 349 328 293 269 238 206 166 342 217 148 131 125 118 111 117 132 136 146 141 117 108 105 100 96 96 90 83
342 43 32 358 330 350 357 352 351 1 14 11 351 342 347 336 325 342 337 313 291 294 288 277 282 273 263 270 264 260 282 276 263 275 10 41 127 169 230 245 206 166 163 203 215 192 233 228 182 190 220 205 185 156 135 147 310 345 354 1 9 10 4 351 326 297 263 213 151 143 126 116 118 107 96 109 127 124 118 108 100 104 111 111 107 101 93 85
11 34 34 11 2 26 16 352 354 11 18 11 7 8 1 346 339 7 23 359 346 348 343 317 299 280 274 301 304 297 353 327 305 353 24 21 7 33 7 303 262 184 200 222 209 186 235 237 192 207 228 223 211 196 180 194 208 229 308 347 2 10 23 27 3 346 353 114 124 122 111 103 110 104 87 88 97 97 94 90 90 98 107 110 106 100 95 88
5 15 354 306 30 46 39 12 10 23 21 9 11 8 355 352 360 358 14 39 18 350 356 345 320 310 331 14 24 34 31 9 346 351 352 3 34 7 97 122 263 269 236 211 323 327 304 275 229 219 218 217 210 211 224 222 218 221 229 267 317 346 27 57 33 360 17 93 106 110 108 99 96 100 95 91 96 99 93 85 80 70 71 95 103 103 104 98
346 356 335 307 336 358 3 31 21 22 31 18 5 360 351 1 8 349 344 19 20 9 5 355 345 338 349 20 27 20 8 346 335 337 328 334 334 246 195 173 224 257 283 60 8 347 327 273 236 228 223 220 203 199 204 208 231 240 233 235 253 294 23 52 53 28 55 117 103 96 104 111 122 119 107 92 89 90 82 72 67 59 51 57 72 83 94 91
348 349 333 306 320 356 4 37 18 10 50 41 357 357 351 353 5 1 346 355 3 10 7 357 357 354 355 18 12 352 338 323 316 315 308 307 296 272 255 239 239 223 106 80 35 328 295 211 201 231 231 240 231 208 192 184 226 246 252 259 247 217 164 71 53 35 39 143 129 86 104 127 136 120 91 68 60 63 63 61 65 69 66 62 61 63 68 67
Height
795 794 793 792 791 790 789 788 788 786 785 784 783 783 782 782 781 781 780 779 779 778 778 777 776 775 774 772 771 769 768 766 763 763 758 748 746 747 747 748 748 749 751 752 753 753 752 753 752 750 750 748 748 746 742 738 736 741 749 758 757 751 741 728 721 713 709 707 706 710 709 716 717 707 704 706 711 714 715 719 722 725 727 726 727 731 736 741
794 793 792 792 791 790 789 788 787 785 784 783 782 782 781 781 780 780 779 778 778 777 776 776 775 774 773 772 770 769 768 765 763 757 748 742 745 747 746 747 748 749 750 751 751 749 750 750 749 748 749 748 746 743 743 737 736 743 748 754 752 743 730 716 711 704 705 711 708 711 715 717 716 709 707 716 721 717 721 727 728 733 735 733 731 735 739 743
794 793 792 791 790 789 789 788 786 785 783 782 781 781 780 780 780 779 778 778 777 776 775 775 774 773 772 771 770 769 767 765 759 749 739 738 743 744 744 746 746 747 748 749 749 747 747 746 745 746 748 749 744 741 743 738 736 741 744 751 744 732 724 712 706 703 706 712 713 714 715 715 713 709 711 719 723 720 725 732 737 741 741 739 737 738 741 745
794 793 792 791 790 789 788 787 786 784 783 782 781 780 779 779 778 778 777 777 776 775 774 774 773 772 771 770 769 769 768 764 751 739 736 737 740 741 743 744 745 746 747 747 748 746 745 743 743 744 747 749 743 739 741 737 735 737 740 746 736 724 724 714 705 704 705 710 716 718 718 718 711 707 712 719 728 732 729 728 736 741 739 739 741 741 744 748
794 793 792 791 790 789 788 786 785 784 782 781 780 779 778 778 777 777 776 776 775 774 773 773 772 771 770 769 769 768 769 763 744 735 738 738 739 741 742 743 744 745 746 748 747 745 743 741 741 743 746 748 743 740 740 733 730 735 736 735 729 723 723 712 703 706 707 711 718 720 722 718 709 711 714 719 733 741 731 724 730 734 734 736 740 743 746 749
794 792 791 790 789 789 787 786 784 783 782 780 779 778 777 777 776 776 775 775 774 774 773 772 771 770 769 768 768 768 769 756 737 736 739 737 740 740 741 742 743 745 746 748 746 743 741 740 741 744 746 746 744 740 737 728 727 737 735 728 725 722 721 713 706 709 711 717 724 723 720 713 715 720 714 715 726 730 726 724 728 729 730 734 737 742 746 749
793 792 791 790 789 788 786 785 784 782 781 780 778 777 776 775 775 774 774 774 774 772 772 771 770 769 768 767 766 766 766 750 735 737 738 737 740 739 741 742 742 745 746 746 745 742 740 741 743 743 744 746 744 738 733 726 725 734 736 727 724 720 718 715 710 711 716 724 724 720 717 716 723 723 714 714 714 718 723 724 726 726 729 734 738 742 745 747
793 792 791 790 788 787 785 784 783 782 780 779 778 776 775 774 773 773 772 772 772 771 771 770 770 769 768 768 765 762 758 744 735 737 737 738 739 739 741 742 743 744 745 745 742 739 739 741 741 739 743 743 739 736 731 728 727 730 732 726 722 719 715 712 711 713 718 722 720 719 721 720 723 719 716 716 710 714 722 723 726 728 730 736 740 743 744 747
793 792 790 789 788 786 785 783 782 781 779 778 777 776 774 773 772 772 771 771 770 771 770 770 770 768 769 768 766 762 748 736 735 737 736 737 738 740 741 741 743 744 744 743 739 738 737 739 738 736 740 738 734 733 729 732 731 725 726 724 722 720 714 710 711 714 717 719 719 723 726 722 719 719 720 714 708 710 714 720 726 728 731 736 740 743 745 748
792 791 790 788 787 786 784 782 781 780 779 778 777 775 774 772 772 771 770 770 770 770 769 770 769 768 770 767 766 761 742 733 736 736 736 737 737 739 741 741 742 742 742 740 737 735 734 735 733 731 734 734 732 730 727 730 726 719 720 720 718 719 715 712 713 715 718 718 719 724 728 723 717 722 726 716 706 706 710 718 722 727 732 734 739 742 745 751
792 790 789 787 786 785 783 782 781 779 778 777 776 775 773 771 771 770 769 769 768 769 768 768 768 769 769 767 765 756 738 734 736 735 737 738 737 739 740 740 740 741 740 737 735 733 732 731 727 728 733 733 732 731 726 723 719 717 718 718 717 718 717 714 714 715 719 719 717 720 725 722 719 724 725 715 706 704 712 718 719 726 732 731 737 741 745 753
791 790 788 787 786 784 783 782 780 779 778 776 775 774 772 771 770 769 768 768 768 768 768 768 769 769 769 766 759 746 735 735 736 735 737 737 738 738 738 739 738 739 738 735 733 731 731 729 727 732 732 729 732 735 728 719 717 718 718 723 724 721 720 716 712 714 719 720 713 717 730 728 723 724 717 710 706 704 713 717 717 725 728 730 735 740 746 751
790 789 788 787 785 784 783 781 780 779 777 776 774 772 772 770 769 768 767 767 767 767 767 768 768 768 770 762 746 737 735 735 734 735 735 736 737 737 737 737 736 736 736 733 731 729 731 730 729 733 729 729 733 729 722 717 720 722 721 727 729 728 725 716 711 712 716 717 708 717 741 738 724 719 711 707 705 705 714 716 715 719 724 733 737 740 746 747
790 789 787 786 785 784 782 781 780 778 776 775 773 772 770 769 768 767 766 766 766 766 766 767 768 769 769 755 737 733 734 733 733 733 734 735 735 735 735 735 734 735 734 732 731 729 730 730 730 732 729 730 730 722 721 723 724 725 726 728 731 737 730 713 708 712 716 715 705 718 742 737 722 715 707 704 702 704 713 716 715 715 721 736 741 742 745 744
790 788 787 786 784 783 782 780 779 777 776 774 772 771 769 768 767 765 765 765 765 765 765 766 767 766 763 749 733 730 731 732 731 731 732 733 732 733 732 734 734 733 733 733 732 731 730 730 732 736 734 729 728 730 732 732 727 726 735 737 732 735 731 714 705 706 715 714 705 719 737 732 718 709 701 701 701 705 714 715 715 716 720 731 737 739 743 743
789 788 787 785 784 783 781 780 778 776 774 772 771 770 768 767 765 764 764 763 764 764 765 766 764 764 761 744 731 729 729 728 728 729 731 730 731 730 730 732 732 732 733 732 732 732 730 731 732 735 735 732 733 737 739 739 734 727 735 742 734 731 729 719 705 697 704 711 708 716 729 727 717 705 696 697 699 704 713 715 714 716 719 727 734 737 742 743
789 788 786 785 783 782 780 779 777 775 773 772 770 768 767 765 764 763 763 763 764 763 765 763 759 762 754 736 730 729 724 724 725 726 727 728 729 728 727 730 731 731 731 731 732 731 731 732 734 734 734 734 732 734 745 751 744 731 730 736 731 725 724 720 709 694 694 707 710 712 720 721 713 702 695 692 695 701 711 715 714 714 717 726 735 740 744 745
789 787 786 784 783 781 780 778 776 774 772 770 769 767 765 764 763 763 762 763 763 764 765 761 760 763 748 732 731 725 718 719 721 722 724 727 728 726 725 727 729 730 732 733 733 732 733 732 734 737 736 736 733 733 747 749 739 731 729 731 729 723 719 716 708 693 691 705 710 711 718 720 710 703 695 684 685 699 709 712 712 712 715 725 734 735 739 744
788 787 785 783 782 780 779 777 775 773 771 769 768 766 764 763 762 762 762 762 761 761 758 753 755 754 738 727 724 719 715 716 720 721 722 724 726 725 724 726 728 730 735 738 735 732 733 735 738 742 739 736 732 730 734 732 724 721 718 719 722 720 716 707 699 686 684 702 710 709 715 718 713 707 698 685 685 699 707 708 711 710 711 721 729 730 734 742
787 786 784 782 781 779 778 776 774 773 771 769 768 766 763 759 757 756 757 757 753 747 742 739 740 737 729 722 717 715 717 718 721 720 720 722 724 724 724 726 728 731 735 736 735 729 730 740 743 740 736 729 726 724 722 720 716 713 712 712 710 712 712 701 693 682 680 699 709 707 710 712 711 706 699 694 697 705 706 708 711 708 708 716 722 727 733 738
786 785 783 781 780 778 776 775 773 772 771 770 769 768 760 752 752 752 750 747 741 736 735 731 730 728 724 720 713 710 714 719 721 718 719 720 722 726 726 727 732 735 734 730 730 727 730 742 739 729 727 722 719 719 719 719 717 716 717 716 708 705 706 695 688 683 681 697 705 703 708 709 706 704 698 695 701 708 708 710 712 708 709 712 717 723 727 732
786 784 782 780 778 776 775 773 772 771 770 770 770 767 757 750 750 749 747 744 734 729 729 725 724 723 717 715 713 710 714 720 721 718 716 719 722 726 725 727 733 733 729 727 728 732 737 739 730 721 718 717 716 713 717 720 720 720 719 721 714 702 700 695 686 680 682 699 705 702 709 710 703 700 697 694 697 703 705 706 709 708 709 711 714 718 724 736
785 782 781 779 776 776 774 772 770 769 768 768 767 762 756 751 749 748 748 746 735 724 721 719 718 717 714 713 711 711 716 718 720 716 712 718 722 722 723 726 730 727 726 727 728 736 741 732 721 716 713 716 717 712 714 719 720 723 721 724 721 705 702 703 695 686 686 699 706 703 707 709 704 700 696 693 692 695 700 703 704 704 707 709 710 712 723 739
784 781 780 778 776 774 772 770 768 765 764 763 762 757 753 752 750 749 748 746 737 721 712 710 708 708 708 707 705 710 715 714 715 711 708 716 719 718 720 722 725 726 723 721 722 728 729 717 709 712 712 712 717 717 720 724 726 725 722 723 720 708 703 702 700 696 695 704 707 709 719 716 707 704 700 694 692 693 698 703 705 703 704 706 707 711 721 732
782 781 779 776 775 772 771 769 764 762 761 759 758 752 751 752 750 750 750 749 740 717 703 702 701 699 697 699 702 704 709 711 710 705 702 710 715 716 718 715 719 724 719 716 719 721 717 706 702 709 710 708 716 722 724 728 731 727 721 718 715 711 705 698 699 704 713 721 712 716 740 733 709 704 703 698 695 695 699 704 706 704 703 705 709 715 724 733
782 780 778 777 775 771 770 767 763 763 760 756 754 750 751 752 750 752 752 753 743 715 702 701 699 697 693 696 698 701 712 713 703 698 698 706 709 710 716 714 713 718 713 709 713 714 710 703 701 706 709 712 720 724 720 722 732 732 717 710 712 711 709 704 702 710 726 731 713 714 741 741 717 708 705 700 699 699 703 706 705 704 705 705 710 721 731 735
781 779 777 776 774 773 771 766 764 763 758 754 752 752 753 751 752 752 754 761 743 707 699 703 698 697 695 694 694 705 719 710 699 698 695 703 706 704 714 714 711 713 705 706 716 713 706 705 706 707 711 717 723 723 717 715 729 730 709 703 709 710 711 709 705 712 718 720 716 711 724 737 729 714 701 698 702 703 704 706 706 705 705 707 714 727 736 735
779 777 777 775 773 774 773 769 767 762 757 755 754 755 754 752 754 752 761 772 738 694 693 700 696 695 693 692 695 705 708 698 703 703 691 699 705 705 715 712 709 710 701 708 721 711 702 708 710 710 715 719 719 716 710 710 721 719 703 699 702 703 708 706 706 713 712 720 732 719 716 736 735 710 695 696 703 706 706 707 709 707 708 714 721 726 730 730
778 776 775 773 771 771 770 770 768 762 758 757 756 757 754 754 754 752 766 769 729 694 694 696 697 698 695 696 700 703 699 694 701 698 689 698 703 703 712 709 705 707 699 704 714 706 699 701 702 708 715 716 712 707 702 707 713 707 701 700 696 695 701 704 709 714 716 730 741 725 716 735 738 712 700 707 709 707 707 707 707 707 713 721 724 726 729 729
776 774 773 772 770 769 768 768 764 760 758 757 758 756 754 756 755 762 774 758 721 699 693 694 700 698 697 702 704 703 701 696 692 691 693 700 702 702 703 701 702 705 700 700 706 703 695 693 695 701 707 706 703 701 697 699 702 700 701 704 702 698 698 705 709 711 728 742 736 720 713 728 741 720 702 708 708 703 706 707 707 710 716 724 725 729 736 733
773 772 772 771 769 769 768 764 759 759 758 758 758 756 756 756 755 768 766 735 713 701 690 695 699 693 697 705 705 702 701 697 691 695 701 702 704 708 706 705 706 710 709 707 707 704 698 699 701 698 697 698 700 700 694 691 694 699 704 708 715 715 710 714 714 717 742 750 729 713 706 719 740 725 702 702 699 697 703 706 710 715 718 723 725 730 737 734
771 769 768 768 767 767 766 760 757 759 759 759 759 755 757 760 760 762 747 722 714 700 687 694 693 689 696 699 700 700 699 697 692 695 702 704 708 709 710 711 710 720 726 717 712 710 705 702 700 699 696 695 701 705 699 695 697 703 706 714 729 735 733 737 736 735 746 741 719 707 708 720 732 718 702 704 703 700 701 702 709 714 715 720 724 728 732 733
768 766 765 764 764 763 761 759 759 761 759 759 759 754 757 765 761 749 736 726 713 691 684 692 689 688 694 697 699 696 697 698 693 695 698 700 706 707 706 704 701 714 723 716 715 716 714 706 697 701 700 694 699 706 709 707 706 708 709 716 731 742 752 757 750 743 743 731 709 701 714 730 730 715 705 707 709 705 700 700 708 711 713 718 722 725 729 734
765 763 762 761 761 760 759 760 760 760 760 759 759 756 761 766 754 737 731 724 707 690 688 691 690 692 694 696 697 691 696 698 691 695 697 698 707 708 705 702 698 703 709 713 715 714 722 720 704 701 701 695 697 700 700 700 702 706 702 706 720 731 745 752 746 743 742 731 714 708 721 732 731 722 710 706 708 708 707 708 710 712 714 718 723 727 734 740
762 760 760 759 759 758 758 760 760 760 760 758 757 758 762 760 746 734 727 715 703 697 692 687 690 699 698 694 691 686 694 700 691 693 697 699 705 705 702 701 697 696 705 717 715 707 717 715 695 690 691 691 697 695 689 694 703 702 694 703 716 716 722 733 737 736 736 737 729 722 725 725 722 718 709 707 711 711 715 717 718 723 722 723 729 734 741 746
760 758 758 757 756 756 757 758 759 759 759 756 758 758 753 745 735 727 716 705 701 698 695 692 692 700 704 697 692 689 693 697 693 696 700 697 698 698 694 694 693 692 698 709 711 708 716 709 688 686 689 685 691 692 687 695 708 707 702 706 704 695 705 728 736 727 731 747 740 728 732 729 724 724 714 711 715 716 722 726 728 732 730 730 736 739 744 747
759 757 756 754 752 754 756 756 757 758 757 756 758 753 742 732 725 718 708 701 698 692 695 703 698 696 704 702 696 691 691 694 695 701 707 701 697 695 690 686 686 688 689 695 701 701 711 713 694 689 695 686 681 687 686 685 695 709 712 704 693 692 701 719 737 736 739 751 737 724 733 734 733 736 722 714 722 728 732 735 736 737 735 737 742 744 746 749
760 757 754 751 751 753 754 755 755 756 756 756 756 749 738 728 718 712 707 702 700 694 696 708 704 695 698 701 697 689 687 695 698 703 712 711 702 698 696 691 684 682 682 687 696 695 703 718 706 690 694 686 677 688 695 686 683 693 699 694 701 721 722 719 734 745 747 754 741 724 726 731 735 734 724 722 730 736 738 740 743 743 740 743 748 752 753 754
760 757 754 750 751 752 753 754 754 754 755 756 754 746 736 728 718 710 706 702 700 699 701 707 706 698 694 694 694 688 687 696 705 711 717 718 710 703 702 701 693 685 678 681 693 694 701 722 718 695 687 685 684 694 704 699 688 685 691 691 698 717 724 722 728 731 737 751 747 727 726 743 746 733 726 731 735 737 741 743 745 745 742 745 751 755 756 757
757 755 753 750 751 752 752 753 753 753 754 751 746 739 730 724 717 709 706 704 700 699 701 704 706 704 697 690 687 686 687 694 709 720 720 715 714 710 704 702 701 696 684 678 687 692 700 720 726 706 691 694 700 699 700 702 696 695 702 704 703 706 711 719 723 718 722 740 746 737 744 760 754 734 730 736 737 738 742 743 747 749 746 748 753 755 758 760
754 753 750 749 751 751 751 753 752 750 749 744 738 732 725 719 714 707 703 701 699 696 697 704 708 705 701 696 689 686 689 691 698 712 716 714 718 717 709 703 703 705 701 690 686 692 701 713 722 717 709 710 707 692 688 692 692 695 700 703 705 706 712 727 734 720 713 725 736 746 763 766 749 734 734 735 735 739 742 743 749 754 754 757 760 759 765 769
754 753 749 748 751 750 750 753 749 745 745 741 733 727 721 715 713 708 702 699 700 699 699 704 707 704 704 702 694 689 693 693 692 702 713 721 725 718 708 702 701 703 705 698 691 693 699 708 718 720 714 709 701 690 689 689 686 687 690 692 695 698 707 727 740 734 725 723 723 734 758 762 743 733 735 736 738 745 747 744 746 751 753 757 760 760 765 769
750 749 747 748 749 747 750 753 748 744 745 740 733 727 721 716 713 709 704 705 708 709 709 709 707 705 704 702 699 697 697 696 696 701 707 716 720 712 703 701 702 702 702 704 702 697 700 710 721 725 721 713 701 694 693 689 686 691 691 689 693 696 700 707 717 726 732 733 727 732 753 759 744 734 737 742 748 752 753 749 746 748 750 751 756 759 762 764
746 744 744 746 747 745 749 755 754 750 747 742 739 736 728 721 717 714 713 713 713 713 716 714 711 706 699 696 700 701 698 701 702 701 707 715 713 706 701 700 702 703 704 708 708 706 710 715 719 730 741 739 725 716 716 711 707 710 704 695 693 694 697 703 706 713 725 728 723 734 757 760 745 739 743 749 755 758 760 758 752 752 754 754 757 761 764 765
748 745 742 742 745 744 746 752 752 748 745 746 747 743 737 729 723 718 717 717 715 715 717 716 713 708 700 697 701 697 694 702 703 699 708 719 713 705 703 701 703 706 704 704 702 706 718 720 721 732 743 749 748 742 741 736 728 724 717 706 699 693 697 710 716 723 733 730 721 736 760 762 749 746 751 755 759 762 767 768 763 761 763 761 759 762 765 766
748 747 745 743 744 745 745 746 747 749 750 752 750 742 736 736 732 724 719 719 717 716 718 716 713 711 709 708 708 702 696 700 702 699 703 711 712 707 702 701 707 709 706 704 701 704 716 721 722 729 732 738 745 741 737 737 736 734 729 720 713 703 698 707 719 730 737 737 740 747 754 758 757 753 756 762 765 767 770 770 767 765 764 763 762 764 765 766
747 750 752 752 752 751 749 748 750 757 757 754 755 749 740 739 737 729 724 721 718 718 719 717 715 716 718 717 716 714 707 702 701 699 699 704 708 707 702 700 705 707 707 706 702 705 719 724 723 727 729 729 732 734 736 740 741 740 735 728 725 720 714 714 721 725 727 738 756 756 746 754 762 757 759 767 769 770 770 766 764 763 762 764 766 767 768 769
748 752 753 756 760 759 757 755 754 757 756 752 754 753 749 748 743 735 730 724 719 720 723 723 720 717 716 715 716 718 717 712 708 704 707 711 710 708 708 705 702 704 706 705 702 705 718 723 721 725 729 725 724 730 736 741 742 740 739 735 734 736 739 738 732 723 718 729 748 751 749 757 763 761 763 766 765 767 767 764 763 763 763 765 767 769 772 774
751 753 752 753 757 759 759 757 753 755 756 754 753 751 752 753 747 737 732 732 732 729 729 734 731 719 714 715 716 721 727 727 725 721 720 724 722 717 721 724 717 708 704 704 704 705 715 722 720 722 728 725 724 729 731 735 739 740 740 740 740 741 747 753 753 740 727 728 736 744 755 764 766 766 767 765 763 764 763 763 765 766 766 767 769 772 775 778
757 757 757 754 752 752 754 754 753 756 758 758 757 755 753 752 749 742 735 736 742 737 733 739 738 726 723 724 722 728 732 731 732 731 723 724 727 723 725 736 735 718 707 710 713 711 718 726 721 719 729 729 725 728 731 734 738 740 742 743 744 746 746 751 760 757 749 747 747 750 764 773 771 768 768 767 766 764 764 767 770 771 771 770 771 774 776 779
761 759 760 759 755 751 751 752 753 757 762 765 763 759 755 751 753 753 744 736 739 739 735 737 738 733 732 731 730 732 732 728 729 727 720 719 722 719 719 726 729 721 716 721 727 726 726 729 725 725 735 734 727 729 734 735 738 742 744 744 745 750 751 749 755 758 759 762 762 762 770 778 775 770 771 772 770 768 771 776 778 780 780 779 779 779 779 782
764 761 760 762 759 751 749 753 754 755 762 768 765 761 759 755 751 753 752 744 739 739 738 737 736 737 738 739 737 735 731 728 726 722 718 716 713 710 710 712 712 715 721 732 745 744 733 729 730 733 739 738 731 729 732 738 747 751 749 745 744 748 751 750 753 757 758 760 763 764 769 775 774 773 778 782 782 781 783 785 787 788 788 790 790 789 789 792